Location: Unnamed
(47.6264°N, 122.3366°W)
Time: 06:40:23
(UTC-07:00)

X-37B - Pass Details

Date: 21 June 2021
Orbit: 383 x 392 km, 45.0° (Epoch: 01 July)

Event Time Altitude Azimuth Distance (km) Brightness Sun altitude
Exits shadow 01:47:05 15° 104° (ESE) 1,136 2.9 -18.5°
Drops below altitude 10° 01:47:46 10° 101° (E) 1,405 3.4 -18.5°
Sets 01:49:52 0° 96° (E) 2,260 4.5 -18.4°
